Погода в Центора-Юрте

Россия / Чеченская Республика     43°18′58″N   45°50′06″E
темп.,
°C
ветер,
м/с
пор.,
м/с
влажн.,
%
обл.,
%
осадки,
мм/ч
давл.,
гПа
погр.,
м
24 июня, чт
чт2400:00+25зюз11520 0.0 101164
03:00+23юз22520 0.0 101172
06:00+25з23470 0.0 1012260
09:00+31зсз33410 0.0 10111076
12:00+36с32291 0.0 10102145
15:00+37с44231 0.0 10092525
18:00+35ссз55250 0.0 10091322
21:00+28зюз22470 0.0 101153
25 июня, пт
пт2500:00+26зюз245964 0.0 1011159
03:00+24юз116698 0.0 101124
06:00+26юз12580 0.0 1011231
09:00+32сз21420 0.0 10101184
12:00+36с32290 0.0 10081988
15:00+38с43250 0.0 10072458
18:00+36ссз54300 0.0 10061206
21:00+29з245160 0.0 1008254
26 июня, сб
сб2600:00+27зюз2363100 0.0 1009141
03:00+26юз1366100 0.0 1008139
06:00+27зюз1258100 0.0 1008244
09:00+32зсз223770 0.0 10081108
12:00+37ссз322693 0.0 10052086
15:00+38сз542691 0.0 10052168
18:00+35сз44316 0.0 10061532
21:00+30з2649100 0.0 1007349
27 июня, вс
вс2700:00+27зюз245995 0.0 1008194
03:00+26зюз1365100 0.0 1008130
06:00+26зюз245997 0.0 1009311
09:00+31зсз334298 0.0 10091256
12:00+36сз2231100 0.0 10082020
15:00+38с3226100 0.0 10072438
18:00+36с44325 0.0 10071059
21:00+27з4964100 0.6 1010338
28 июня, пн
пн2800:00+24ююз238466 1.9 1011121
03:00+24зюз238372 2.1 1010117
06:00+23юз3488100 1.9 1012238
09:00+29з335750 2.4 1012896
12:00+34ссз2239100 0.0 10101910
15:00+36ссз3332100 0.0 10092469
18:00+33с224197 0.3 1009636
21:00+29з2556100 0.6 1011274